Cahokia, IL

10:02 AM CDT on July 20, 2017 (GMT -0500)
Saint Louis Downtown

Weather History for KCPS - October, 2013

Change the Weather History Date:

Sunday, October 20, 2013

  Actual Average Record
Temperature  
Mean Temperature 55 °F -  
Max Temperature 70 °F 65 °F 88 °F (2003)
Min Temperature 41 °F 44 °F 30 °F (2006)
Degree Days  
Heating Degree Days 10    
Growing Degree Days 5 (Base 50)    
Moisture  
Dew Point 39 °F    
Average Humidity 56    
Maximum Humidity 79    
Minimum Humidity 33    
Precipitation  
Precipitation 0.00 in - - ()
Sea Level Pressure  
Sea Level Pressure 29.93 in    
Wind  
Wind Speed 7 mph (South)    
Max Wind Speed 16 mph    
Max Gust Speed 23 mph    
Visibility 10 miles    
Events      
Averages and records for this station are not official NWS values.
T = Trace of Precipitation, MM = Missing Value Source: NWS Daily Summary

Daily Weather History Graph

Daily Weather History Graph

Search for Another Location

Airport or City:

Trip Planner

Search our weather history database for the weather conditions in past years. The results will help you decide how hot, cold, wet, or windy it might be!

Date:

Astronomy

Oct. 20, 2013 Rise Set
Actual Time 7:14 AM CDT 6:15 PM CDT
Civil Twilight 6:48 AM CDT 6:42 PM CDT
Nautical Twilight 6:17 AM CDT 7:12 PM CDT
Astronomical Twilight 5:46 AM CDT 7:43 PM CDT
Moon 7:25 PM CDT 8:51 AM CDT
Length of Visible Light 11h 53m
Length of Day
11h 00m
Full, 97% of the Moon is Illuminated
Oct 20
Full
Oct 26
Last Quarter
Nov 3
New
Nov 9
First Quarter
Nov 17
Full

Hourly Weather History & Observations

Time (CDT) Temp. Windchill Dew Point Humidity Pressure Visibility Wind Dir Wind Speed Gust Speed Precip Events Conditions
12:53 AM 46.9 °F - 36.0 °F 66% 29.98 in 10.0 mi SSW 6.9 mph - N/A   Clear
1:53 AM 46.0 °F 43.9 °F 36.0 °F 68% 29.97 in 10.0 mi SSW 4.6 mph - N/A   Clear
2:53 AM 46.9 °F - 36.0 °F 66% 29.95 in 10.0 mi SSW 4.6 mph - N/A   Clear
3:53 AM 46.0 °F 44.8 °F 36.0 °F 68% 29.95 in 10.0 mi SSW 3.5 mph - N/A   Clear
4:53 AM 43.0 °F - 36.0 °F 76% 29.94 in 10.0 mi Calm Calm - N/A   Clear
5:53 AM 41.0 °F 39.0 °F 35.1 °F 79% 29.95 in 10.0 mi South 3.5 mph - N/A   Clear
6:53 AM 43.0 °F 40.3 °F 36.0 °F 76% 29.95 in 10.0 mi South 4.6 mph - N/A   Clear
7:53 AM 45.0 °F 43.5 °F 37.0 °F 74% 29.96 in 10.0 mi South 3.5 mph - N/A   Clear
8:53 AM 51.1 °F - 37.9 °F 61% 29.97 in 10.0 mi South 9.2 mph - N/A   Clear
9:53 AM 54.0 °F - 39.0 °F 57% 29.96 in 10.0 mi SSW 8.1 mph - N/A   Clear
10:53 AM 59.0 °F - 39.9 °F 49% 29.96 in 10.0 mi SSW 8.1 mph 16.1 mph N/A   Clear
11:53 AM 63.0 °F - 39.9 °F 43% 29.94 in 10.0 mi South 11.5 mph 16.1 mph N/A   Clear
12:53 PM 66.0 °F - 39.9 °F 38% 29.91 in 10.0 mi SSW 13.8 mph 19.6 mph N/A   Clear
1:53 PM 69.1 °F - 39.9 °F 35% 29.88 in 10.0 mi South 9.2 mph 23.0 mph N/A   Clear
2:53 PM 69.1 °F - 39.0 °F 33% 29.87 in 10.0 mi South 16.1 mph 23.0 mph N/A   Clear
3:53 PM 69.1 °F - 39.0 °F 33% 29.87 in 10.0 mi SSW 15.0 mph 21.9 mph N/A   Clear
4:53 PM 68.0 °F - 39.9 °F 36% 29.87 in 10.0 mi SSW 11.5 mph 18.4 mph N/A   Clear
5:53 PM 64.9 °F - 39.9 °F 40% 29.88 in 10.0 mi South 8.1 mph 18.4 mph N/A   Clear
6:53 PM 61.0 °F - 42.1 °F 50% 29.90 in 10.0 mi South 4.6 mph - N/A   Clear
7:53 PM 57.9 °F - 42.1 °F 56% 29.91 in 10.0 mi South 8.1 mph - N/A   Clear
8:53 PM 57.0 °F - 43.0 °F 59% 29.92 in 10.0 mi South 6.9 mph - N/A   Clear
9:53 PM 55.9 °F - 43.0 °F 62% 29.93 in 10.0 mi South 6.9 mph - N/A   Clear
10:53 PM 55.0 °F - 42.1 °F 62% 29.94 in 10.0 mi South 5.8 mph - N/A   Clear
11:53 PM 55.0 °F - 42.1 °F 62% 29.94 in 10.0 mi Variable 5.8 mph - N/A   Clear